Notices

INTERRUPTION IN DATA AVAILABILITY. Please be advised that we are currently experiencing data feed issues on our daily data report tables for August 5th, 6th, 7th, and 13th, 2017. We thank you for your patience during this time of difficulty as we are working in rectifying this issue as soon as possible. Do not hesitate to contact us at ec.services.climatiques-climate.services.ec@canada.ca if you have any further questions or concerns.

Hourly Data Report for April 05, 2016

All times are specified in Local Standard Time (LST). Add 1 hour to adjust for Daylight Saving Time where and when it is observed.

EMERSON AUTO
MANITOBA

49°00'00.000" N
97°14'15.000" W
242.00 m
5020881
71560
WEX

Download Data

Hourly Data (April 2016)
Hourly Data Report for April 5, 2016
Temp Definition
°C
Dew Point Temp Definition
°C
Rel Hum Definition
%
Wind Dir Definition
10's deg

Wind Spd Definition
km/h
Visibility Definition
km
Stn Press Definition
kPa
Hmdx Definition


Wind Chill Definition


Weather Definition


TIME
00:00 -3.7 -8.6 69 15 13   99.30   -9 LegendNANA
01:00 -3.4 -8.1 70 15 15   99.27   -9 LegendNANA
02:00 -2.6 -7.8 68 14 15   99.12   -8 LegendNANA
03:00 -2.1 -7.1 68 14 15   99.03   -7 LegendNANA
04:00 -1.1 -7.2 63 14 17   98.89   -6 LegendNANA
05:00 -0.7 -7.2 61 15 19   98.78   -6 LegendNANA
06:00 -0.3 -7.2 60 16 23   98.73   -6 LegendNANA
07:00 0.2 -6.2 62 15 22   98.67     LegendNANA
08:00 1.6 -5.3 60 14 20   98.59     LegendNANA
09:00 2.4 -4.4 61 15 20   98.46     LegendNANA
10:00 3.8 -3.8 58 13 24   98.32     LegendNANA
11:00 4.1 -3.1 60 12 25   98.19     LegendNANA
12:00 2.6 -1.2 76 13 22   98.20     LegendNANA
13:00 0.3 0.3 100 14 19   98.15     LegendNANA
14:00 0.5 0.5 100 13 19   98.07     LegendNANA
15:00 0.8 0.3 97 12 20   97.96     LegendNANA
16:00 1.0 0.4 96 12 21   97.85     LegendNANA
17:00 1.0 0.2 95 12 16   97.87     LegendNANA
18:00 0.8 0.4 97 10 15   97.84     LegendNANA
19:00 0.5 0.3 99 10 14   97.85     LegendNANA
20:00 0.6 0.2 98 9 17   97.83     LegendNANA
21:00 0.6 0.2 97 8 13   97.85     LegendNANA
22:00 0.5 0.2 97 8 9   97.92     LegendNANA
23:00 0.4 0.1 98 4 13   97.95     LegendNANA

Notes on Data Quality.

Legend

  • E = Estimated
  • M = Missing
  • NA = Not Available
  • ‡ = Partner data that is not subject to review by the National Climate Archives
Date modified: